Find GGSE 5

NORAD ID: 2834 Int'l Des: 1967-053 Owner: NRO/NRL Country: US operational
LEOCIRCULAR

Live-Position

3D-Globus wird geladen...

Über GGSE 5

Beschreibung wird geladen...

Nächste Überflüge

Passes for default location (London). Set your location on the main map for personalized predictions.

Höhenverlauf

Loading altitude history...

Zweizeiliger Elementsatz

1 2834U 67053D 26105.84044777 -.00000027 00000-0 19387-4 0 9995
2 2834 69.9716 266.5501 0010010 284.3473 75.6521 13.96183788997437
Epoch: 15. Apr. 2026 • Age: 10 hours

Aktueller Status

Höhe 924.5 km
Geschwindigkeit 7.39 km/s
Subsatellitenpunkt -63.54°S, 161.55°W
Typ other

Most Searched